FW5682 Weather Reports


Display with metric or nautical units.
time (UTC)temp
F
wind
direction
speed
MPH
gust
MPH
rain 1hr
in
rain 24hr
in
rain mn
in
humidity
%
barometer
mb
20260509053424 49 0 1.0 2.0 0.00 0.00 0.00 93 1017.6
20260509052924 48 0 0.0 3.0 0.00 0.00 0.00 93 1017.6
20260509052423 48 0 2.0 3.0 0.00 0.00 0.00 93 1017.5
20260509051923 48 0 1.0 3.0 0.00 0.00 0.00 93 1017.6
20260509051653 48 0 2.0 4.0 0.00 0.00 0.00 93 1017.5
20260509050922 48 0 2.0 4.0 0.00 0.00 0.00 93 1017.5
20260509050702 48 0 0.0 3.0 0.00 0.00 0.00 93 1017.5
20260509045923 48 0 2.0 4.0 0.00 0.00 0.00 93 1017.4
20260509045423 48 0 2.0 7.0 0.00 0.00 0.00 93 1017.3
20260509044923 48 0 3.0 7.0 0.00 0.00 0.00 93 1017.2
20260509044422 48 4 3.0 7.0 0.00 0.00 0.00 93 1017.2
20260509043922 49 358 2.0 5.0 0.00 0.00 0.00 93 1017.2
20260509043422 49 358 3.0 6.0 0.00 0.00 0.00 93 1017.3
20260509042921 49 358 4.0 6.0 0.00 0.00 0.00 93 1017.3
20260509042421 49 0 4.0 6.0 0.00 0.00 0.00 93 1017.2
20260509041923 49 1 3.0 5.0 0.00 0.00 0.00 93 1017.2
20260509041422 49 1 3.0 4.0 0.00 0.00 0.00 92 1017.2
20260509041142 49 0 2.0 7.0 0.00 0.00 0.00 92 1017.3
20260509040421 49 0 4.0 7.0 0.00 0.00 0.00 92 1017.1
20260509035921 49 0 3.0 9.0 0.00 0.00 0.00 92 1017.1
20260509035421 49 6 3.0 9.0 0.00 0.00 0.00 92 1017.0
20260509034921 49 0 5.0 7.0 0.00 0.00 0.00 92 1017.0
20260509034421 49 0 4.0 7.0 0.00 0.00 0.00 92 1017.1
20260509033923 49 0 4.0 9.0 0.00 0.00 0.00 92 1017.0
20260509033422 49 3 4.0 9.0 0.00 0.00 0.00 92 1017.1
20260509032923 49 4 5.0 9.0 0.00 0.00 0.00 91 1017.0
20260509032422 49 4 4.0 6.0 0.00 0.00 0.00 91 1017.2
20260509031922 49 1 3.0 5.0 0.00 0.00 0.00 91 1017.2
20260509031421 49 3 3.0 6.0 0.00 0.00 0.00 91 1017.3
20260509030920 49 3 4.0 6.0 0.00 0.00 0.00 91 1017.2
20260509030419 49 0 3.0 5.0 0.00 0.00 0.00 91 1017.2
20260509025920 49 0 3.0 5.0 0.00 0.00 0.00 91 1017.3
20260509025643 49 0 3.0 5.0 0.00 0.00 0.00 91 1017.2
20260509024920 49 1 2.0 6.0 0.00 0.00 0.00 90 1017.2
20260509024419 49 0 3.0 9.0 0.00 0.00 0.00 90 1017.3
20260509023919 49 0 3.0 9.0 0.00 0.00 0.00 90 1017.3
20260509023419 49 4 5.0 7.0 0.00 0.00 0.00 90 1017.3
20260509022919 49 28 3.0 9.0 0.00 0.00 0.00 90 1017.2
20260509022419 49 31 4.0 9.0 0.00 0.00 0.00 90 1017.1
20260509021918 49 21 5.0 7.0 0.00 0.00 0.00 90 1017.2
20260509021637 49 10 5.0 10.0 0.00 0.00 0.00 90 1017.2
20260509021146 49 13 4.0 10.0 0.00 0.00 0.00 89 1017.3
20260509020419 50 11 4.0 7.0 0.00 0.00 0.00 89 1017.2
20260509015918 50 30 4.0 7.0 0.00 0.00 0.00 89 1017.2
20260509015418 50 16 4.0 9.0 0.00 0.00 0.00 89 1017.1
20260509014918 50 14 4.0 9.0 0.00 0.00 0.00 88 1017.2
20260509014418 50 13 4.0 7.0 0.00 0.00 0.00 88 1017.2
20260509013918 50 14 4.0 9.0 0.00 0.00 0.00 88 1017.2
20260509013418 50 20 4.0 9.0 0.00 0.00 0.00 88 1017.2
20260509012918 50 3 6.0 9.0 0.00 0.00 0.00 88 1017.2
20260509012417 50 1 6.0 7.0 0.00 0.00 0.00 88 1017.3
20260509011917 50 10 5.0 7.0 0.00 0.00 0.00 89 1017.3
20260509011418 50 8 3.0 6.0 0.00 0.00 0.00 89 1017.3
20260509010917 50 14 4.0 6.0 0.00 0.00 0.00 88 1017.3
20260509010417 50 16 3.0 5.0 0.00 0.00 0.00 88 1017.4
20260509010140 50 18 3.0 5.0 0.00 0.00 0.00 87 1017.4
20260509005416 50 20 2.0 4.0 0.00 0.00 0.00 87 1017.3
20260509005139 50 20 2.0 4.0 0.00 0.00 0.00 87 1017.3
20260509004414 50 20 2.0 5.0 0.00 0.00 0.00 87 1017.3
20260509003914 50 21 3.0 5.0 0.00 0.00 0.00 87 1017.3
20260509003412 50 21 3.0 4.0 0.00 0.00 0.00 87 1017.2
20260509002913 50 21 2.0 4.0 0.00 0.00 0.00 87 1017.3
20260509002413 50 21 2.0 3.0 0.00 0.00 0.00 87 1017.3
20260509001912 50 21 2.0 4.0 0.00 0.00 0.00 87 1017.3
20260509001414 50 21 2.0 4.0 0.00 0.00 0.00 87 1017.3
20260509000913 50 21 3.0 5.0 0.00 0.00 0.00 87 1017.2
20260509000413 50 21 3.0 5.0 0.00 0.00 0.00 87 1017.2
20260508235912 50 21 2.0 5.0 0.00 0.00 0.00 87 1017.3
20260508235636 50 20 2.0 5.0 0.00 0.00 0.00 87 1017.3
20260508234912 50 20 3.0 5.0 0.00 0.00 0.00 87 1017.3
20260508234406 50 20 3.0 5.0 0.00 0.00 0.00 87 1017.3
20260508234128 50 21 2.0 4.0 0.00 0.00 0.00 87 1017.3
20260508233407 50 20 3.0 5.0 0.00 0.00 0.00 88 1017.3
20260508232911 50 20 3.0 5.0 0.00 0.00 0.00 87 1017.3
20260508232410 50 21 2.0 4.0 0.00 0.00 0.00 87 1017.3
20260508231914 50 21 2.0 4.0 0.00 0.00 0.00 87 1017.3
20260508231422 51 20 2.0 4.0 0.00 0.00 0.00 88 1017.3
20260508230908 51 20 2.0 4.0 0.00 0.00 0.00 88 1017.4
20260508230406 51 20 3.0 4.0 0.00 0.00 0.00 88 1017.4
20260508225907 51 20 3.0 5.0 0.00 0.00 0.00 88 1017.4
20260508225402 51 20 2.0 5.0 0.00 0.00 0.00 88 1017.3
20260508224903 51 20 3.0 4.0 0.00 0.00 0.00 88 1017.3
20260508224402 51 20 2.0 4.0 0.00 0.00 0.00 88 1017.3
20260508223900 51 20 2.0 4.0 0.00 0.00 0.00 88 1017.3
20260508223356 51 20 2.0 3.0 0.00 0.00 0.00 87 1017.3
20260508223116 51 20 2.0 3.0 0.00 0.00 0.00 87 1017.3
20260508222617 51 20 2.0 4.0 0.00 0.00 0.00 87 1017.4
20260508221852 51 20 2.0 4.0 0.00 0.00 0.00 87 1017.4
20260508221350 52 20 2.0 4.0 0.00 0.00 0.00 87 1017.4
20260508221109 52 20 2.0 4.0 0.00 0.00 0.00 86 1017.2
20260508220354 52 20 2.0 4.0 0.00 0.00 0.00 87 1017.3
20260508215855 52 18 2.0 4.0 0.00 0.00 0.00 86 1017.4
20260508214850 52 17 2.0 5.0 0.00 0.00 0.00 86 1017.2
20260508214346 52 16 2.0 4.0 0.00 0.00 0.00 86 1017.2
20260508213850 52 16 2.0 4.0 0.00 0.00 0.00 86 1017.2
20260508213340 52 14 2.0 4.0 0.00 0.00 0.00 86 1017.2
20260508212840 52 14 2.0 4.0 0.00 0.00 0.00 86 1017.3
20260508211840 52 13 2.0 4.0 0.00 0.00 0.00 86 1017.1
20260508211339 52 13 1.0 3.0 0.00 0.00 0.00 86 1017.0
20260508210839 52 13 2.0 4.0 0.00 0.00 0.00 86 1017.0
20260508210336 52 13 2.0 4.0 0.00 0.00 0.00 86 1017.0
20260508205837 52 11 3.0 4.0 0.00 0.00 0.00 86 1016.9
20260508205336 52 13 2.0 3.0 0.00 0.00 0.00 86 1016.9
20260508204837 52 13 2.0 5.0 0.00 0.00 0.00 86 1016.9
20260508204335 52 13 4.0 5.0 0.00 0.00 0.00 86 1016.9
20260508203835 52 10 3.0 5.0 0.00 0.00 0.00 86 1016.8
20260508203334 52 8 2.0 4.0 0.00 0.00 0.00 85 1016.8
20260508202836 52 8 2.0 4.0 0.00 0.00 0.00 85 1016.8
20260508202335 53 8 3.0 5.0 0.00 0.00 0.00 85 1016.6
20260508201834 53 8 3.0 5.0 0.00 0.00 0.00 85 1016.7
20260508201335 53 10 3.0 4.0 0.00 0.00 0.00 85 1016.6
20260508200836 53 10 1.0 6.0 0.00 0.00 0.00 84 1016.6
20260508200334 53 10 1.0 6.0 0.00 0.00 0.00 84 1016.5
20260508195834 53 7 2.0 6.0 0.00 0.00 0.00 84 1016.4
20260508194834 53 16 4.0 7.0 0.00 0.00 0.00 83 1016.3
20260508194334 53 21 4.0 7.0 0.00 0.00 0.00 83 1016.3
20260508193834 53 20 3.0 7.0 0.00 0.00 0.00 82 1016.2
20260508193334 54 24 3.0 6.0 0.00 0.00 0.00 82 1016.2
20260508193055 54 23 4.0 7.0 0.00 0.00 0.00 82 1016.1
20260508192333 54 16 4.0 7.0 0.00 0.00 0.00 82 1016.1
20260508191335 54 0 3.0 6.0 0.00 0.00 0.00 81 1016.0
20260508190833 54 7 3.0 6.0 0.00 0.00 0.00 81 1015.9
20260508190334 54 13 4.0 6.0 0.00 0.00 0.00 80 1015.7
20260508185833 55 11 3.0 6.0 0.00 0.00 0.00 80 1015.9
20260508185334 55 14 3.0 6.0 0.00 0.00 0.00 80 1015.8
20260508185055 55 4 4.0 6.0 0.00 0.00 0.00 81 1015.7
20260508184334 55 1 4.0 9.0 0.00 0.00 0.00 81 1015.7
20260508183833 56 16 5.0 9.0 0.00 0.00 0.00 82 1015.5
20260508183333 56 6 3.0 6.0 0.00 0.00 0.00 82 1015.7
20260508182834 56 24 2.0 6.0 0.00 0.00 0.00 81 1015.5
20260508182334 56 24 4.0 6.0 0.00 0.00 0.00 80 1015.4
20260508181834 57 42 4.0 6.0 0.00 0.00 0.00 79 1015.4
20260508181333 57 69 3.0 6.0 0.00 0.00 0.00 79 1015.3
20260508180835 58 71 3.0 5.0 0.00 0.00 0.00 78 1015.4
20260508180555 58 71 3.0 6.0 0.00 0.00 0.00 77 1015.4
20260508175834 58 69 3.0 9.0 0.00 0.00 0.00 76 1015.3
20260508175335 58 76 3.0 9.0 0.00 0.00 0.00 75 1015.3
20260508174840 58 107 5.0 9.0 0.00 0.00 0.00 75 1015.1
20260508174611 58 72 4.0 9.0 0.00 0.00 0.00 74 1015.0
20260508173832 58 65 4.0 7.0 0.00 0.00 0.00 73 1015.0
20260508173332 59 109 6.0 7.0 0.00 0.00 0.00 73 1014.9
20260508172833 59 92 5.0 7.0 0.00 0.00 0.00 73 1014.9
20260508172332 59 89 4.0 7.0 0.00 0.00 0.00 73 1015.0
20260508171833 59 117 2.0 10.0 0.00 0.00 0.00 72 1014.9
20260508171333 59 86 4.0 10.0 0.00 0.00 0.00 72 1014.9
20260508170832 59 107 4.0 9.0 0.00 0.00 0.00 73 1014.8
20260508170341 59 133 3.0 5.0 0.00 0.00 0.00 73 1014.8
20260508165832 60 109 2.0 9.0 0.00 0.00 0.00 72 1014.7
20260508165332 60 109 4.0 9.0 0.00 0.00 0.00 71 1014.6
20260508165054 60 123 4.0 7.0 0.00 0.00 0.00 72 1014.6
20260508164333 60 123 5.0 7.0 0.00 0.00 0.00 73 1014.7
20260508163832 60 133 4.0 7.0 0.00 0.00 0.00 76 1014.6
20260508163332 60 121 4.0 6.0 0.00 0.00 0.00 75 1014.6
20260508162832 59 121 3.0 6.0 0.00 0.00 0.00 75 1014.6
20260508162330 59 123 4.0 5.0 0.00 0.00 0.00 76 1014.6
20260508161830 59 124 3.0 5.0 0.00 0.00 0.00 77 1014.6
20260508161554 59 124 2.0 5.0 0.00 0.00 0.00 78 1014.6
20260508160831 58 124 2.0 4.0 0.00 0.00 0.00 78 1014.7
20260508160553 59 125 2.0 3.0 0.00 0.00 0.00 79 1014.7
20260508155827 59 125 2.0 5.0 0.00 0.00 0.00 79 1014.7
20260508152825 61 116 3.0 7.0 0.00 0.00 0.00 71 1014.7
20260508152322 61 133 4.0 7.0 0.00 0.00 0.00 70 1014.7
20260508151822 61 133 5.0 7.0 0.00 0.00 0.00 69 1014.6
20260508151321 61 134 4.0 7.0 0.00 0.00 0.00 70 1014.7
20260508150321 61 109 4.0 9.0 0.00 0.00 0.00 71 1014.6
20260508145820 61 109 2.0 5.0 0.00 0.00 0.00 72 1014.7
20260508145045 61 86 4.0 7.0 0.00 0.00 0.00 71 1014.7
20260508144317 61 120 4.0 5.0 0.00 0.00 0.00 70 1014.7
20260508143817 61 114 3.0 6.0 0.00 0.00 0.00 71 1014.8
20260508143316 61 114 3.0 6.0 0.00 0.00 0.00 69 1014.8
20260508142817 61 114 4.0 6.0 0.00 0.00 0.00 69 1014.8
20260508142316 61 123 4.0 7.0 0.00 0.00 0.00 68 1014.8
20260508142036 62 121 4.0 10.0 0.00 0.00 0.00 68 1014.7
20260508140812 62 114 2.0 7.0 0.00 0.00 0.00 66 1014.8
20260508140312 62 145 3.0 7.0 0.00 0.00 0.00 65 1014.8
20260508135812 62 172 1.0 5.0 0.00 0.00 0.00 66 1014.8
20260508135533 61 175 3.0 5.0 0.00 0.00 0.00 71 1014.8
20260508135040 60 171 2.0 7.0 0.00 0.00 0.00 67 1014.8
20260508134312 60 171 1.0 7.0 0.00 0.00 0.00 65 1014.8
20260508133808 61 176 4.0 6.0 0.00 0.00 0.00 67 1014.9
20260508133308 60 148 3.0 7.0 0.00 0.00 0.00 69 1014.8
20260508132808 60 149 2.0 10.0 0.00 0.00 0.00 66 1014.9
20260508132526 60 133 6.0 10.0 0.00 0.00 0.00 68 1015.0
20260508131806 60 152 2.0 7.0 0.00 0.00 0.00 67 1015.0
20260508131305 60 149 3.0 7.0 0.00 0.00 0.00 70 1015.0
20260508130805 60 182 3.0 6.0 0.00 0.00 0.00 68 1015.0
20260508130305 60 179 4.0 6.0 0.00 0.00 0.00 67 1015.0
20260508125804 60 180 4.0 6.0 0.00 0.00 0.00 70 1015.0
20260508125532 60 185 3.0 7.0 0.00 0.00 0.00 69 1014.9
20260508124805 60 214 4.0 7.0 0.00 0.00 0.00 68 1014.9
20260508123805 60 199 4.0 7.0 0.00 0.00 0.00 73 1014.9
20260508123304 59 173 4.0 7.0 0.00 0.00 0.00 73 1015.0
20260508122806 59 173 4.0 7.0 0.00 0.00 0.00 70 1015.0
20260508122307 60 182 5.0 10.0 0.00 0.00 0.00 71 1015.0
20260508121804 60 183 4.0 10.0 0.00 0.00 0.00 71 1014.9
20260508121305 60 178 7.0 10.0 0.00 0.00 0.00 71 1015.1
20260508120804 60 182 5.0 12.0 0.00 0.00 0.00 71 1015.1
20260508120303 61 180 6.0 12.0 0.00 0.00 0.00 71 1015.0
20260508115801 61 192 5.0 10.0 0.00 0.00 0.00 71 1014.9
20260508115520 61 162 5.0 10.0 0.00 0.00 0.00 70 1015.0
20260508114800 61 200 5.0 11.0 0.00 0.00 0.00 72 1015.0
20260508113801 60 217 2.0 6.0 0.00 0.00 0.00 76 1014.9
20260508113301 60 219 3.0 10.0 0.00 0.00 0.00 75 1014.9
20260508112802 60 217 6.0 12.0 0.00 0.00 0.00 73 1015.0
20260508112301 60 195 4.0 12.0 0.00 0.00 0.00 70 1014.9
20260508111800 61 149 4.0 9.0 0.00 0.00 0.00 71 1014.9
20260508111302 61 203 2.0 9.0 0.00 0.00 0.00 71 1014.8
20260508110800 61 192 5.0 10.0 0.00 0.00 0.00 73 1014.8
20260508110313 61 206 5.0 11.0 0.00 0.00 0.00 71 1014.8
20260508105800 61 141 7.0 11.0 0.00 0.00 0.00 71 1014.7
20260508105300 62 183 4.0 11.0 0.00 0.00 0.00 69 1014.8
20260508105017 62 220 7.0 11.0 0.00 0.00 0.00 70 1014.8
20260508104258 61 149 5.0 10.0 0.00 0.00 0.00 69 1014.7
20260508103758 60 151 5.0 10.0 0.00 0.00 0.00 72 1014.8
20260508103258 60 212 4.0 9.0 0.00 0.00 0.00 70 1014.7
20260508102756 61 176 4.0 9.0 0.00 0.00 0.00 72 1014.9
20260508102256 61 220 5.0 9.0 0.00 0.00 0.00 74 1014.9
20260508101756 59 171 3.0 9.0 0.00 0.00 0.00 74 1014.8
20260508101257 59 172 4.0 7.0 0.00 0.00 0.00 73 1014.9
20260508100756 60 197 4.0 7.0 0.00 0.00 0.00 72 1014.9
20260508100256 59 195 2.0 7.0 0.00 0.00 0.00 72 1014.9
20260508095756 59 135 3.0 6.0 0.00 0.00 0.00 74 1014.8
20260508095526 60 121 4.0 6.0 0.00 0.00 0.00 74 1014.9
20260508094756 59 148 3.0 7.0 0.00 0.00 0.00 76 1014.8
20260508094256 59 172 4.0 7.0 0.00 0.00 0.00 74 1014.8
20260508093755 59 141 4.0 7.0 0.00 0.00 0.00 75 1014.8
20260508093255 60 145 4.0 6.0 0.00 0.00 0.00 77 1014.8
20260508092756 58 159 4.0 6.0 0.00 0.00 0.00 77 1014.7
20260508092254 57 161 4.0 6.0 0.00 0.00 0.00 81 1014.7
20260508091255 58 165 2.0 6.0 0.00 0.00 0.00 76 1014.8
20260508090754 59 169 4.0 6.0 0.00 0.00 0.00 77 1014.7
20260508090255 58 178 4.0 6.0 0.00 0.00 0.00 77 1014.7
20260508085754 57 193 2.0 5.0 0.00 0.00 0.00 80 1014.7
20260508085254 56 195 3.0 6.0 0.00 0.00 0.00 80 1014.7
20260508084754 56 196 4.0 6.0 0.00 0.00 0.00 81 1014.8
20260508084254 55 200 1.0 6.0 0.00 0.00 0.00 82 1014.7
20260508083754 55 200 4.0 6.0 0.00 0.00 0.00 82 1014.8
20260508083255 54 206 2.0 4.0 0.00 0.00 0.00 82 1014.8
20260508082755 54 209 3.0 4.0 0.00 0.00 0.00 81 1014.7
20260508082254 53 209 2.0 4.0 0.00 0.00 0.00 82 1014.7
20260508081754 53 209 2.0 4.0 0.00 0.00 0.00 82 1014.8
20260508081254 52 209 1.0 3.0 0.00 0.00 0.00 84 1014.7
20260508080753 52 209 1.0 3.0 0.00 0.00 0.00 83 1014.8
20260508075753 51 209 2.0 4.0 0.00 0.00 0.00 85 1014.7
20260508075254 51 209 2.0 3.0 0.00 0.00 0.00 85 1014.7
20260508074754 51 209 1.0 4.0 0.00 0.00 0.00 86 1014.5
20260508074253 51 209 2.0 4.0 0.00 0.00 0.00 86 1014.5
20260508074014 51 209 2.0 3.0 0.00 0.00 0.00 86 1014.5
20260508073520 51 209 2.0 3.0 0.00 0.00 0.00 86 1014.4
20260508072752 51 209 0.0 3.0 0.00 0.00 0.00 86 1014.4
20260508072252 51 209 1.0 3.0 0.00 0.00 0.00 86 1014.3
20260508071752 51 209 1.0 3.0 0.00 0.00 0.00 87 1014.3
20260508071252 51 209 0.0 4.0 0.00 0.00 0.00 88 1014.2
20260508070752 51 209 2.0 4.0 0.00 0.00 0.00 88 1014.1
20260508070518 50 209 1.0 2.0 0.00 0.00 0.00 89 1014.2
20260508065751 50 209 1.0 3.0 0.00 0.00 0.00 90 1014.1
20260508065252 50 209 1.0 3.0 0.00 0.00 0.00 90 1014.1
20260508064751 49 209 1.0 4.0 0.00 0.00 0.00 91 1014.1
20260508064252 49 209 2.0 4.0 0.00 0.00 0.00 91 1013.9
20260508063751 49 209 1.0 3.0 0.00 0.00 0.00 93 1013.9
20260508063250 48 209 2.0 3.0 0.00 0.00 0.00 93 1013.8
20260508062750 48 209 0.0 0.0 0.00 0.00 0.00 94 1013.9
20260508062250 47 209 0.0 0.0 0.00 0.00 0.00 94 1013.8
20260508062014 47 209 0.0 0.0 0.00 0.00 0.00 94 1013.7
20260508061251 46 209 0.0 0.0 0.00 0.00 0.00 93 1013.7
20260508060751 46 209 0.0 2.0 0.00 0.00 0.00 94 1013.7
20260508060250 46 209 0.0 2.0 0.00 0.00 0.00 93 1013.7
20260508055750 45 209 1.0 2.0 0.00 0.00 0.00 93 1013.6
20260508055256 45 209 0.0 3.0 0.00 0.00 0.00 93 1013.7
20260508054754 45 209 2.0 3.0 0.00 0.00 0.00 93 1013.5
20260508054255 44 209 1.0 3.0 0.00 0.00 0.00 93 1013.5
20260508053750 44 209 1.0 3.0 0.00 0.00 0.00 93 1013.5